Weather in Elovka

Russia / Tomsk District     55°56′44″N   83°43′49″E
temp.,
°C
wind,
m/s
gust,
m/s
humid.,
%
clouds,
%
prec.,
mm/h
press.,
hPa
HPBL,
m
15 may, sat
sat1501:00+10wsw3644100 0.0 1022112
04:00+11sw4114598 0.0 1020283
07:00+11sw5145297 0.3 1020417
10:00+15sw61246100 0.1 1018519
13:00+23wsw81138100 0.1 10161516
16:00+24w81036100 0.0 10151857
19:00+24wsw7114299 0.0 10131202
22:00+16wnw41076100 1.7 1015255
16 may, sun
sun1601:00+14nw1295100 3.6 101565
04:00+11ssw1197100 0.0 101412
07:00+13nw129174 0.1 1015141
10:00+18ssw2471100 0.0 1013710
13:00+20w4860100 0.4 10111131
16:00+16n5986100 0.9 1010371
19:00+15n5887100 3.8 1010584
22:00+11nne5893100 1.4 1012492
17 may, mon
mon1701:00+9nne479280 1.4 1015417
04:00+7n369717 0.0 1016193
07:00+9n358638 0.0 1018287
10:00+13nne226188 0.0 1018720
13:00+16w225159 0.0 10171185
16:00+19wsw244492 0.0 10151667
19:00+17wsw3556100 0.0 1014110
22:00+14sw41077100 0.6 1012290
18 may, tue
tue1801:00+14sw41389100 1.6 1010373
04:00+14wsw51290100 1.8 1008408
07:00+14wsw3893100 2.9 1007359
10:00+16nnw4683100 0.0 1007651
13:00+19nnw346598 0.1 10071277
16:00+14n4891100 2.5 1007429
19:00+16nnw467588 3.1 10071058
22:00+12ne368999 0.1 1008275
19 may, wed
wed1901:00+11nne3490100 0.1 1008244
04:00+10nne2392100 0.0 1008227
07:00+9ne3591100 0.1 1008303
10:00+9ne4785100 0.0 1008485
13:00+10nne3685100 0.5 1009618
16:00+14nne5748100 0.0 10081801
19:00+13n6849100 0.0 10081838
22:00+8n396199 0.0 1011163